DELTA 1 DEB, 10761

Orbit data source: Space-Track

DELTA 1 DEB, 10761 is space debris in SSO originally from a launch on Thu, 29 Jul 1976 UTC launched from the Air Force Western Test Range (AFWTR). Debris objects in space refer to the collection of defunct objects orbiting the Earth. Examples of debris include non-operational satellites, rocket bodies, and fragments generated from explosions, collisions, or faulty payload assembly.

Loading next visibility...
Identifier
10761, 1976-077BJ
Orbit
SSO
Country
Flag of USUS
Related business
Manufacturer
Unknown
Mission
Spacecraft
Bus & Motor
Unknown
Mass
Unknown
Launch date (UTC)
1976-07-29 (49 years ago)
Launch vehicle
Unknown
Launch site
Air Force Western Test Range (AFWTR)
Object type
Payload
Rocket body
Debris
Shape & HBR
Unknown shape, 0.1 m
Radar Cross Section
Small (<0.1 m²)

Expand to show TLE details & history
Last TLE update: 1 day ago

TLE from 1 day ago
0 DELTA 1 DEB
1 10761U 76077BJ  25301.47069782  .00161134  00000-0  16706-1 0  9993
2 10761 101.3362 150.2635 0252106 131.1757 231.1482 14.68658944194129
Epoch: 2025-10-28T11:17Z
TLE epoch observation values (Epoch: 2025-10-28T11:17:48.291Z)
Latitude
Longitude
-56.24543°
Altitude
782.305 km
Speed
7.402 km/s
True Right ascension
10h 01m 03s
True Declination
0° 00' 00"
Sunlit
Object was in daylight at epoch
Visualization orbit readout
Latitude
Unknown
Longitude
Unknown
Altitude
Unknown
Speed
Unknown
Apparent Right ascension
Unknown
Apparent Declination
Unknown
Sunlit
N/A
Visualization observer readout
Local Sidereal Time
07:58:45
Azimuth
Unknown
Elevation
Unknown
Doppler factor
Unknown
Orbital elements
Apogee altitude
840.092 km
Perigee altitude
485.09 km
Semi-major axis
7,040.728 km
Eccentricity
0.02521
Inclination
101.3362°
RAAN
150.2635°
Arg. of periapsis
131.1757°
True anomaly
228.94258°
Mean anomaly
231.1482°
Eccentric anomaly
230.04101°
Mean motion
3.67381 °/min
Orbital period
97.99 mins
BSTAR
0.016706
Loading maneuver chart data...
Computing Atmospheric mass density...
Loading historical data...
Loading historical data...
Loading historical data...
Loading historical data...
Loading historical data...
Loading historical data...
Loading historical data...

Documentation

Showing up to 5 results
|